Theta_e
316 317 320 318 319 320 325 329 327 327 324 319 319 319 316 316 316 316 316 317 318 319 317 317 323 325 325 326 328 331 329 336 336 328 328 330 331 335 335 335 337 336 337 338 338 338 338 337 332 330 330 332 335 334 334 331 330 329 325 321 321 326 330 331 333 334 334 336 335 335 336 336 334 328 327 330 332 332 331 331 331 331 331 332 332 332 331 329 329 328 328 329 329 329 329 329 329
318 321 323 321 321 319 325 329 330 328 323 315 317 319 315 315 316 318 319 319 318 320 321 322 326 327 328 326 324 327 327 331 327 324 331 332 335 336 335 336 336 336 337 338 339 338 337 336 331 330 329 331 335 334 334 332 331 329 325 323 324 328 331 332 333 334 335 336 335 335 335 335 334 331 330 331 332 332 332 331 331 331 331 331 331 330 331 330 329 328 329 328 328 328 328 328 328
319 322 323 321 321 320 329 328 325 326 322 317 321 319 313 316 318 320 320 317 317 320 324 324 325 324 325 325 323 324 327 329 325 328 334 335 336 335 336 336 336 336 336 338 338 338 337 335 333 331 328 331 335 334 333 332 331 329 326 325 326 328 330 332 333 334 335 335 334 335 335 335 335 333 332 331 331 332 331 330 330 330 331 331 330 330 331 331 330 329 329 329 328 328 328 328 328
320 323 321 323 325 329 343 335 327 326 320 319 321 318 318 321 320 321 318 315 318 320 319 318 322 320 320 323 325 325 331 333 330 333 336 335 336 335 336 337 336 336 336 338 338 337 337 336 335 331 327 332 335 334 333 332 329 328 327 326 325 328 329 331 333 334 335 334 334 335 335 335 335 333 332 331 331 331 331 330 330 330 330 330 330 331 332 331 331 330 328 327 326 326 328 328 328
320 322 319 323 330 331 335 326 323 323 318 320 319 317 322 324 319 319 316 315 318 317 315 319 325 322 321 327 326 325 329 333 333 334 336 336 336 335 336 337 336 335 337 337 337 338 337 337 336 332 327 331 335 334 334 332 328 327 327 325 324 326 330 331 332 333 334 335 334 334 335 335 334 332 331 331 331 331 330 330 329 330 329 330 331 332 332 331 331 329 326 327 327 326 327 326 327
320 319 318 319 320 319 322 317 317 320 320 321 318 317 320 320 317 318 316 314 315 314 315 319 325 326 328 328 324 324 326 331 334 335 335 335 335 335 337 337 336 336 337 337 337 337 337 338 337 334 328 330 335 334 334 331 327 326 327 326 323 324 329 331 331 332 333 334 333 333 334 334 333 330 330 331 331 330 330 329 329 329 329 330 331 331 331 330 330 329 328 329 328 328 327 326 325
320 318 321 322 318 320 326 322 323 324 316 314 315 315 317 318 317 319 318 315 315 313 314 318 322 328 328 325 325 326 328 332 333 335 335 335 335 335 337 336 336 335 336 337 337 337 338 337 337 335 329 328 333 335 333 330 327 326 326 326 324 323 328 330 330 332 333 333 331 332 333 333 332 330 330 330 329 329 330 329 328 329 329 330 330 330 330 330 330 330 329 329 328 328 327 326 325
319 321 325 331 328 327 330 324 324 322 312 310 312 315 317 318 317 320 319 317 316 314 318 321 320 323 321 321 329 328 327 333 333 336 335 336 335 335 337 336 335 334 335 335 337 338 337 337 336 336 332 330 333 335 334 331 328 327 326 327 325 323 325 327 327 330 332 332 332 332 333 333 332 330 330 329 328 328 329 328 328 328 329 329 329 330 330 330 330 330 329 328 328 328 327 326 326
317 319 324 330 326 325 327 320 316 316 314 313 311 316 320 316 316 319 318 316 315 315 321 323 318 317 319 324 330 326 328 334 334 336 336 337 335 335 337 336 335 334 333 333 336 337 336 337 336 336 334 333 334 334 334 332 329 328 327 327 326 323 322 322 322 326 328 329 331 332 333 332 332 331 330 328 328 329 328 328 328 328 328 328 329 329 330 330 330 329 329 328 328 328 326 326 326
318 319 323 329 327 319 318 315 315 316 315 315 313 317 319 315 315 317 318 316 314 317 320 320 318 317 320 326 328 326 330 333 334 336 336 337 335 334 336 336 335 334 334 332 334 335 335 337 336 336 335 334 334 334 335 333 331 329 328 327 327 324 320 319 321 323 323 323 326 330 330 331 332 330 330 328 327 328 328 328 327 327 328 328 329 330 329 329 329 328 328 328 328 327 326 326 326
324 324 330 331 325 317 315 315 318 321 318 316 315 316 317 314 315 316 316 314 314 316 316 316 320 323 324 328 327 325 328 333 335 336 336 338 336 334 336 336 335 334 334 333 333 334 334 336 336 336 335 335 334 334 335 333 332 330 328 327 327 325 321 318 320 321 320 319 321 328 329 329 330 329 329 328 327 328 328 327 327 327 328 329 330 330 329 328 328 328 328 327 327 326 326 326 327
324 328 341 334 322 317 318 319 319 329 326 319 318 316 314 313 315 316 315 316 315 316 316 315 319 324 329 331 324 321 327 334 335 336 337 338 337 334 335 337 336 335 335 334 334 333 334 336 336 336 336 335 335 335 335 334 333 331 329 327 327 326 324 320 319 318 318 317 317 323 326 326 327 328 328 328 327 327 328 327 326 327 327 328 329 329 329 328 328 328 327 326 327 327 326 326 326
330 331 339 325 319 320 319 318 317 326 327 320 318 313 310 313 316 317 317 317 315 318 316 313 318 320 325 327 320 322 329 334 336 337 337 338 338 334 334 337 336 335 335 335 335 334 335 336 336 336 336 335 335 335 335 334 333 332 329 328 328 327 325 322 319 318 318 317 316 318 321 320 322 325 326 326 326 326 328 327 325 326 328 328 329 329 328 327 328 327 326 326 327 327 327 326 326
333 333 335 321 314 321 320 317 317 320 320 320 317 311 310 314 317 316 316 316 316 319 312 309 317 320 319 318 318 328 331 333 337 337 337 339 339 335 334 336 336 335 336 335 335 336 336 336 336 336 336 336 335 335 335 334 334 333 331 329 328 327 327 324 321 320 319 318 318 317 317 317 318 320 322 323 326 327 327 326 324 325 327 327 328 328 327 326 327 326 326 327 326 326 326 326 326
328 329 333 327 315 317 318 316 322 322 319 320 315 311 313 313 313 315 314 316 317 312 309 309 314 316 317 317 317 325 328 334 336 337 339 339 339 338 335 334 335 335 336 336 336 336 337 336 336 336 336 335 335 336 336 335 334 333 332 330 328 327 328 325 323 321 321 320 320 319 318 316 315 316 319 321 324 327 327 326 324 325 326 327 327 327 326 326 326 326 327 326 326 325 325 325 326
325 331 333 330 318 316 316 314 320 321 321 319 310 310 316 312 309 314 310 311 314 308 312 315 313 316 315 317 320 320 327 336 336 336 337 336 338 339 336 335 335 335 336 336 336 336 337 337 336 337 336 336 335 335 336 335 335 334 333 332 329 328 328 327 325 323 321 321 321 320 319 317 315 314 317 319 322 327 327 326 325 324 326 326 326 326 325 325 325 326 325 325 325 324 325 325 326
325 336 335 325 319 319 316 315 318 320 323 317 309 310 317 315 309 310 305 307 313 311 316 315 314 320 318 316 320 321 330 336 335 336 336 336 336 337 337 336 335 335 336 335 336 336 337 337 336 337 336 335 335 335 336 335 335 335 334 333 331 329 328 328 327 324 322 322 321 321 320 319 316 313 315 316 320 326 327 326 324 324 325 325 325 325 325 325 325 324 323 324 324 324 324 324 325
332 339 331 322 321 323 321 318 317 319 321 315 312 313 317 317 311 309 308 311 313 312 316 314 316 320 318 319 320 324 331 335 336 336 337 337 336 337 337 336 336 335 335 335 335 335 337 337 336 336 336 335 335 335 335 335 335 335 334 333 332 330 328 328 328 326 324 322 321 321 321 320 318 313 312 314 318 322 325 325 323 323 324 324 324 324 324 324 323 323 322 323 323 323 324 324 325
335 334 326 329 330 323 318 319 316 315 316 315 313 312 314 316 313 310 311 315 314 313 315 314 318 320 320 321 320 325 331 334 336 336 337 337 337 337 337 337 336 335 334 335 335 336 336 336 336 336 336 335 335 335 335 336 335 334 334 333 333 331 329 328 329 328 326 324 322 322 322 321 319 314 310 313 316 318 322 323 322 323 324 324 324 324 323 322 322 322 322 322 322 322 323 323 324
327 329 327 334 333 320 315 317 317 314 314 318 315 310 311 312 312 311 313 317 314 317 317 314 317 319 326 323 318 326 330 333 336 336 337 336 338 338 338 338 336 336 336 334 335 337 335 334 335 335 335 335 335 335 335 335 335 335 334 334 333 332 331 329 329 328 327 325 323 322 322 321 320 316 311 311 314 316 318 321 321 323 323 322 323 322 321 321 321 321 321 321 321 321 322 323 324
318 325 330 328 323 318 314 314 316 313 312 317 315 310 312 310 310 311 314 316 315 319 318 315 319 319 331 326 319 328 329 331 334 335 336 336 337 337 338 338 337 337 336 336 336 336 336 335 335 335 335 334 334 335 334 334 335 334 334 334 334 333 332 330 329 329 328 326 324 323 322 322 320 318 313 311 312 314 315 318 320 321 321 321 321 320 320 321 321 321 320 320 320 320 321 322 323
315 317 321 321 317 315 313 312 314 312 311 315 315 313 312 310 311 313 314 315 317 318 315 317 316 318 335 329 322 328 328 331 333 333 335 335 336 336 337 338 337 337 337 337 335 335 337 337 337 335 334 334 334 334 334 334 333 333 333 333 333 333 333 331 330 329 329 328 325 323 323 322 321 319 316 312 311 311 313 314 317 319 319 319 320 319 319 320 320 319 319 319 319 319 320 321 322
319 316 313 315 314 314 313 311 312 311 313 316 314 312 311 312 312 312 313 314 316 314 310 311 308 312 325 324 323 328 329 330 332 332 333 334 334 334 335 336 337 337 337 337 335 335 335 336 338 337 336 334 333 334 333 333 333 333 333 333 332 331 332 332 331 330 329 328 326 325 324 323 322 321 318 315 312 310 310 311 313 316 318 318 319 319 319 319 319 319 319 319 318 318 319 320 321
321 318 313 314 312 312 312 311 312 311 315 315 311 310 312 315 313 309 311 314 314 308 303 302 305 313 320 323 326 328 328 330 331 332 332 333 333 332 333 334 336 336 337 336 335 335 334 335 337 337 338 336 334 333 333 333 333 333 333 333 332 330 330 330 331 331 329 329 327 326 324 324 323 323 321 318 315 312 309 309 310 311 315 317 319 319 319 318 319 318 318 318 318 318 318 319 321
320 317 314 313 311 311 311 311 313 311 313 310 309 312 313 314 310 309 314 316 314 307 306 310 313 319 324 326 327 326 328 329 329 331 331 332 332 332 333 333 333 335 336 336 334 335 334 334 335 337 337 336 335 333 332 332 332 333 332 332 333 331 330 329 330 330 330 329 328 326 325 325 324 323 323 320 317 314 311 309 308 308 311 315 318 319 318 318 318 318 318 318 318 318 317 318 320
316 316 315 314 312 312 311 312 314 312 311 310 312 314 313 311 309 312 317 316 312 310 320 329 327 330 331 328 326 324 327 327 328 329 330 331 331 331 332 333 333 333 334 335 334 334 334 334 334 335 335 335 336 335 333 332 331 333 333 332 333 332 330 329 329 329 329 329 328 327 326 325 325 324 324 322 320 317 314 310 308 307 307 312 317 318 318 317 317 317 318 318 317 318 317 318 319
315 317 315 314 313 312 313 313 313 313 313 312 314 314 313 309 310 315 315 310 309 314 330 331 332 341 335 327 325 324 325 326 327 328 328 329 329 331 331 332 333 334 334 334 334 333 334 335 333 333 334 334 335 336 334 332 331 332 333 334 332 332 331 329 328 328 329 329 328 328 327 326 325 325 324 324 322 320 317 313 310 307 306 310 315 317 317 317 317 317 317 317 317 317 317 318 319
314 317 315 314 313 312 313 314 313 314 312 311 314 314 313 310 313 317 313 308 309 317 331 330 333 339 330 326 324 322 323 324 326 326 327 328 329 330 330 332 332 333 334 334 334 333 333 334 334 333 333 333 333 335 335 333 332 330 332 334 333 332 331 330 329 328 327 328 328 328 327 326 325 324 324 324 323 322 319 316 312 309 306 307 312 316 317 317 317 317 317 317 317 317 317 318 319
315 316 314 315 315 313 312 313 314 314 313 312 314 312 314 314 315 317 311 308 311 315 325 331 334 332 325 324 323 322 321 322 324 324 326 327 329 330 329 331 331 332 333 334 334 333 333 333 334 333 332 333 332 333 334 333 333 331 331 332 334 332 330 330 329 328 327 327 327 327 327 325 325 324 324 324 324 323 320 317 314 310 307 307 310 314 316 316 316 316 317 317 317 317 318 318 318
314 314 317 316 315 313 311 313 314 313 312 312 312 311 317 318 316 312 308 309 312 314 320 323 327 326 322 321 322 322 319 319 322 322 325 326 327 328 328 329 329 330 331 332 333 332 332 332 334 334 332 332 331 332 333 334 334 332 331 331 333 333 331 331 329 329 327 326 327 327 327 325 325 325 324 325 324 323 321 318 315 311 308 307 307 311 314 315 315 316 316 317 317 317 318 318 318
314 311 318 319 314 315 313 313 315 312 311 310 310 311 317 319 316 309 308 311 312 313 318 317 318 318 317 317 318 320 318 318 321 321 323 323 324 325 326 327 327 329 329 330 331 331 331 330 333 335 333 332 331 331 332 333 334 333 333 331 332 332 331 331 330 330 329 328 327 326 327 326 326 325 325 325 324 324 323 319 316 312 309 307 306 308 312 314 314 315 315 316 317 317 317 317 318
320 310 317 318 312 316 316 314 316 314 311 310 310 313 317 316 315 310 307 313 314 313 318 318 318 317 314 314 313 315 314 313 316 319 322 322 323 324 323 325 325 326 327 328 329 330 331 330 330 332 334 335 334 333 333 331 331 333 334 332 332 332 332 332 331 331 330 330 330 328 328 327 326 326 325 325 325 325 324 322 319 315 312 309 307 307 310 312 313 314 314 315 316 316 317 317 318
322 314 320 319 314 316 314 313 314 315 313 312 311 313 319 316 314 312 308 312 314 315 319 320 321 320 318 315 311 311 310 310 310 312 318 321 322 323 323 323 323 324 325 326 328 329 330 329 329 329 330 333 333 333 334 332 331 331 333 334 334 333 333 333 332 332 332 331 331 330 329 328 327 326 326 325 325 325 325 324 322 320 318 314 310 307 308 310 312 313 313 314 314 315 316 317 317
320 318 321 318 317 315 314 314 312 312 314 314 313 313 318 318 316 316 312 310 312 315 319 320 319 318 316 315 312 311 309 310 309 306 312 318 320 322 322 322 322 323 324 324 325 327 328 329 329 329 328 329 331 331 331 333 333 332 331 332 333 334 334 333 332 332 332 331 331 331 331 330 329 328 327 326 325 325 325 325 324 323 321 318 314 309 308 309 311 311 312 313 314 314 314 315 316
318 319 317 315 316 314 315 318 312 311 313 314 316 314 316 317 316 316 312 310 313 315 316 315 315 315 313 311 312 312 310 312 309 305 308 311 314 316 318 320 322 322 323 323 324 325 326 327 328 329 328 328 328 329 329 330 334 335 333 332 332 332 333 333 333 332 331 331 330 330 330 331 331 330 328 327 326 326 325 326 325 324 322 320 316 311 308 308 309 311 311 312 313 313 313 314 315
320 321 320 321 323 317 317 318 311 310 314 316 318 316 316 317 316 316 313 311 313 314 313 312 312 312 311 310 310 310 311 313 308 304 306 308 310 312 313 315 317 320 322 323 324 324 324 325 326 327 328 328 328 328 329 329 331 332 332 333 333 331 331 331 332 332 332 331 331 330 330 330 330 330 329 328 326 326 326 326 325 324 323 321 319 316 313 311 310 309 310 311 312 312 312 313 313
318 320 322 323 323 318 315 314 311 310 314 317 320 320 318 316 316 315 312 310 312 313 313 314 313 312 311 312 312 311 311 311 306 304 306 307 308 309 309 310 311 314 318 320 322 323 323 324 324 325 326 327 328 328 329 330 331 331 330 330 331 332 331 331 330 330 330 330 331 331 331 330 329 329 330 328 327 327 326 326 326 324 323 322 322 321 321 318 314 310 309 310 311 311 311 311 312
319 320 319 318 318 318 313 312 313 311 313 318 321 321 318 317 315 315 313 312 314 316 316 317 316 314 312 312 313 312 310 308 306 306 306 306 307 308 308 308 308 310 313 315 318 319 321 322 323 323 324 325 327 327 328 329 330 331 331 331 330 330 331 332 331 330 330 330 331 331 331 330 329 329 329 329 329 327 326 326 326 325 323 322 321 320 320 318 315 311 309 310 310 310 311 311 310
324 320 317 317 318 317 312 311 313 311 313 319 322 321 318 317 315 315 315 315 316 315 315 316 316 315 313 312 312 312 311 311 311 308 305 305 306 307 307 308 307 308 310 311 313 315 318 319 321 321 322 323 324 326 327 327 328 329 330 331 332 332 332 332 333 333 333 332 331 332 332 331 329 329 328 329 329 328 326 326 326 325 324 322 320 319 317 315 313 311 309 310 309 309 309 310 310
323 320 320 319 317 316 313 313 313 311 311 316 320 318 316 315 315 316 313 310 312 313 313 312 311 313 312 311 312 311 312 313 312 310 305 304 305 305 306 307 307 308 308 309 310 312 314 316 317 319 320 321 322 324 325 326 327 328 329 330 332 333 334 334 334 334 334 333 332 332 332 332 330 329 329 329 329 328 327 326 326 326 325 323 320 319 318 315 313 311 310 309 308 307 306 306 308
317 323 330 327 320 317 316 314 314 314 311 312 315 314 320 324 323 323 315 309 311 312 312 312 311 310 309 310 311 310 310 311 310 311 307 303 302 304 305 305 306 307 307 308 309 310 311 312 314 316 318 320 321 322 323 325 326 327 329 330 331 332 333 334 334 333 334 333 331 332 333 331 331 331 330 329 328 328 327 326 324 325 325 324 322 319 319 317 313 310 309 308 308 308 307 305 306
315 322 330 331 325 322 319 317 317 319 315 310 310 312 327 334 330 327 322 318 318 313 313 317 317 312 310 313 313 309 309 308 307 308 307 303 301 302 304 304 304 305 307 308 308 309 310 311 312 315 317 319 321 322 323 324 325 326 328 329 330 331 331 332 332 331 332 332 330 331 332 332 332 332 331 330 328 327 327 324 322 322 322 322 322 321 318 316 313 310 308 308 307 308 307 305 304
317 317 322 326 327 325 325 320 315 318 313 308 309 314 321 325 322 323 324 322 321 316 316 321 320 315 314 315 314 312 310 309 308 307 306 304 302 301 302 304 305 305 306 307 308 309 309 310 312 314 316 318 320 322 323 324 325 326 327 328 328 329 329 329 330 329 330 330 330 330 330 330 330 330 330 330 329 329 328 326 323 322 321 321 322 321 318 316 315 314 311 309 307 306 307 306 305
319 314 317 325 325 326 328 323 320 320 314 312 318 318 314 317 315 316 318 319 320 319 319 323 320 315 314 313 312 310 308 307 307 310 311 306 300 301 303 304 306 306 306 307 307 308 309 310 312 314 316 318 320 322 323 324 325 325 325 326 327 327 327 327 328 328 329 329 329 329 328 328 329 330 331 330 330 329 328 328 327 325 324 323 323 322 320 319 318 316 313 310 307 307 308 307 307
320 311 314 321 323 327 330 329 328 319 310 317 323 314 311 320 322 317 314 314 318 320 318 318 317 316 317 315 313 312 310 306 303 307 312 306 299 301 304 306 306 306 307 307 308 309 310 311 313 315 317 318 320 321 323 324 325 325 325 325 325 326 326 326 326 327 327 328 328 328 327 327 327 328 329 328 329 330 328 328 327 326 325 324 323 322 320 318 316 314 311 309 307 307 308 307 308
315 308 312 317 319 325 326 327 327 317 314 323 323 312 311 319 325 322 313 312 318 318 315 316 316 317 319 319 318 318 318 315 311 307 303 299 300 303 305 308 308 308 308 308 309 311 311 313 314 316 318 319 320 321 323 324 324 325 324 324 324 324 324 325 325 325 325 326 326 326 326 325 325 324 324 325 326 328 328 327 326 326 325 324 323 321 319 317 314 312 311 309 308 307 307 306 306
310 312 317 317 321 326 326 327 322 315 321 325 317 313 311 312 324 325 313 313 318 316 317 319 319 321 321 322 322 320 321 323 322 317 305 298 303 306 307 310 310 309 311 310 311 312 313 315 315 317 318 319 320 321 322 323 324 324 325 324 324 324 324 324 324 324 324 325 325 325 325 324 324 324 323 323 324 325 326 327 326 326 325 325 324 322 320 318 315 313 312 310 309 309 308 307 306
315 322 322 317 322 325 326 328 320 316 327 323 312 311 311 310 321 323 317 316 314 312 315 318 318 320 321 323 323 318 318 322 325 325 316 307 307 309 309 310 311 311 312 312 313 314 314 316 317 318 319 320 321 321 322 323 323 324 324 325 325 325 325 324 324 325 324 325 325 325 325 324 324 323 323 323 323 324 324 326 326 326 325 324 324 324 322 321 318 316 313 311 311 311 310 308 306
319 320 320 320 322 320 323 329 321 319 324 314 309 312 311 311 315 315 317 318 313 310 312 315 316 318 322 324 322 318 318 325 330 327 324 319 312 307 309 310 311 312 313 313 314 315 316 317 317 318 319 320 321 321 322 322 323 324 324 324 325 325 325 325 325 325 325 325 325 325 324 324 324 323 322 323 322 323 323 324 325 325 325 324 323 322 321 320 319 316 315 313 312 311 310 308 307
315 315 319 323 322 316 318 321 315 316 318 310 308 312 313 314 312 312 315 312 312 312 312 315 316 316 318 318 316 319 324 329 331 329 329 324 310 305 308 311 311 312 313 314 315 315 316 317 317 318 319 319 320 321 322 322 322 323 323 323 324 324 324 324 325 325 325 324 324 324 324 323 323 323 322 323 322 322 322 322 322 323 323 322 321 321 320 320 318 317 316 315 313 312 310 309 308
315 316 315 319 325 324 321 322 320 321 318 311 308 312 319 318 310 311 314 312 312 314 312 312 312 312 311 310 313 321 327 329 332 331 327 314 304 305 310 310 311 313 313 314 315 316 316 317 317 318 318 319 319 320 320 321 321 321 322 322 323 323 323 323 323 323 323 323 323 323 323 322 322 322 322 321 321 321 320 320 320 319 319 319 319 319 319 319 318 317 316 315 314 313 310 308 308
316 314 311 316 323 324 318 314 317 318 315 313 312 315 321 318 310 311 311 310 313 314 313 312 315 315 313 316 322 326 329 331 333 334 330 314 304 306 309 309 311 312 313 314 314 315 316 316 317 317 317 318 318 318 318 318 319 319 320 320 320 321 321 321 322 321 321 321 321 321 321 321 320 320 320 319 319 318 318 318 317 317 316 316 316 316 316 316 317 317 317 316 315 314 311 309 309
316 313 315 318 316 319 316 307 307 310 311 314 314 316 319 313 312 316 314 313 313 313 315 317 321 322 321 324 328 328 331 333 332 334 332 315 305 307 309 310 311 311 312 314 313 314 315 315 316 316 316 316 317 317 317 317 318 318 318 318 318 319 319 319 319 318 318 318 319 319 318 318 318 318 317 317 317 316 316 316 315 315 315 315 315 314 314 314 314 315 315 315 315 314 312 311 310
317 319 319 313 309 316 318 312 315 314 313 317 315 314 317 313 313 320 319 316 315 314 316 318 320 321 321 325 326 327 329 330 329 332 326 309 302 308 310 309 310 311 312 312 313 314 314 314 314 314 315 315 315 315 315 316 316 316 316 316 316 317 316 316 316 316 316 316 316 316 316 316 316 315 315 315 315 315 315 314 314 314 314 314 313 313 313 313 313 313 313 313 313 313 312 311 310
316 319 315 314 316 318 314 313 320 317 313 322 321 313 311 311 316 321 318 314 317 319 317 315 317 319 322 325 329 331 331 331 331 334 333 313 302 307 311 310 310 310 311 312 312 313 313 313 314 313 314 314 313 314 314 314 314 314 314 314 314 315 314 314 314 314 314 314 314 314 314 314 314 314 314 314 314 313 313 313 313 313 313 313 313 312 312 312 312 312 312 311 312 311 311 310 309
312 311 309 315 324 323 316 313 318 316 311 318 324 319 315 315 317 320 315 313 318 321 320 319 318 320 322 325 332 334 331 331 328 329 334 316 302 305 310 310 311 311 311 312 312 313 313 313 313 313 313 313 313 313 313 313 313 313 313 313 313 313 313 313 313 313 313 313 313 313 313 313 312 312 312 312 312 312 312 312 312 312 312 312 312 312 312 311 311 311 311 311 310 310 310 309 308
312 312 311 315 317 316 316 313 314 318 317 318 319 319 324 324 317 316 316 315 316 319 323 322 316 316 321 323 328 329 325 326 323 323 328 314 303 307 311 310 312 312 312 312 313 313 313 313 313 313 313 313 312 313 313 313 313 313 313 313 312 312 312 312 312 312 312 312 312 312 312 312 311 311 311 311 311 311 311 311 311 311 311 311 311 311 311 310 310 310 310 310 310 309 309 308 308
314 314 313 315 315 315 317 314 312 313 315 318 317 314 322 327 318 315 318 317 313 313 317 320 316 313 316 317 318 319 318 320 320 324 326 312 305 309 310 310 311 311 312 313 313 314 313 313 313 313 313 313 312 313 313 312 312 312 312 312 312 312 311 311 311 311 311 311 311 311 310 310 310 310 310 310 310 310 310 310 310 310 310 310 310 310 310 310 309 310 309 309 308 308 307 307 307
Wind_Speed
1 1 3 3 1 3 2 4 2 2 3 2 1 1 2 1 0 2 2 1 2 2 2 2 5 5 3 2 4 4 2 4 4 2 1 1 9 21 18 17 21 19 18 16 17 19 17 15 13 13 13 13 13 12 12 11 12 13 14 15 16 17 17 17 17 16 15 13 14 15 15 17 19 20 21 21 21 21 21 20 20 20 20 20 19 19 20 21 21 20 19 20 19 20 21 21 20
0 2 5 5 3 1 1 3 3 2 4 1 2 2 2 1 0 4 5 4 3 1 1 3 4 3 2 2 3 3 1 1 2 1 0 5 14 18 17 20 22 20 20 17 18 18 17 15 13 14 13 13 13 12 12 12 12 12 13 15 15 16 16 16 16 15 15 13 14 15 15 16 18 20 20 21 21 20 20 20 20 19 19 19 19 19 18 19 19 20 19 19 19 20 20 20 20
1 3 5 4 3 3 2 3 2 1 3 1 2 2 1 2 3 5 6 4 2 2 2 3 3 1 2 2 2 2 0 1 3 2 2 12 15 14 19 22 22 21 21 19 19 18 17 15 13 13 13 13 12 12 11 12 11 12 13 14 14 15 16 16 15 15 15 13 14 15 14 15 17 19 19 20 20 19 19 20 19 18 18 18 18 18 17 17 18 19 18 18 18 19 19 20 20
2 3 2 2 1 4 3 3 1 3 2 2 2 3 2 4 5 4 4 3 2 2 2 3 2 0 1 0 1 1 1 1 3 3 4 13 14 16 21 22 23 21 20 19 19 18 17 15 14 13 14 13 12 12 11 11 11 11 12 13 14 15 16 16 15 15 14 13 13 14 14 15 17 18 19 20 20 19 19 19 18 18 17 17 16 16 16 17 17 17 17 17 18 19 19 19 19
3 4 0 2 2 2 3 2 2 3 2 3 1 3 4 5 5 4 2 2 3 0 1 3 1 1 1 1 1 1 2 1 3 4 6 12 14 18 21 23 24 21 20 19 19 19 16 15 13 13 13 13 12 11 11 10 11 11 12 12 12 14 15 15 14 14 14 12 12 13 14 15 16 17 19 20 19 18 18 18 18 17 17 16 15 15 16 15 16 17 18 18 18 18 19 19 19
6 8 6 6 4 1 3 2 2 1 3 4 2 4 4 5 5 5 4 1 2 1 2 2 1 2 1 0 0 2 2 2 4 5 8 13 15 19 20 24 24 19 18 19 19 19 16 15 13 12 13 13 12 11 11 10 10 11 11 11 11 13 14 14 14 14 13 12 12 13 13 14 15 17 19 19 18 18 18 17 17 16 17 15 13 15 16 15 16 17 17 18 17 18 19 19 19
5 4 6 7 4 1 3 2 3 2 2 3 2 3 4 5 4 6 5 2 1 1 1 1 1 3 1 1 0 3 2 2 5 5 10 14 16 19 20 24 24 20 18 18 19 18 16 15 13 12 12 13 12 11 10 9 10 10 10 10 10 12 13 13 14 15 14 11 11 12 12 14 16 17 18 17 16 17 17 17 16 16 16 15 14 15 15 15 15 17 17 17 17 18 18 19 19
3 1 1 4 2 3 4 2 3 2 0 2 3 3 3 5 5 7 6 3 2 1 0 2 1 2 1 1 1 3 1 4 5 5 12 14 17 18 19 23 24 21 19 19 18 17 17 15 14 12 12 12 12 11 10 9 10 10 10 9 10 11 12 12 13 15 15 13 11 12 12 13 15 17 17 15 14 16 16 16 16 15 16 15 15 15 14 14 15 15 16 16 17 17 18 18 19
4 2 0 3 3 3 2 1 1 2 2 3 3 3 2 4 4 6 7 1 1 2 1 3 2 1 1 2 0 2 1 6 6 7 13 14 17 18 19 23 24 23 21 20 19 18 17 15 14 13 12 12 12 11 10 10 9 9 10 9 9 10 11 11 11 14 15 14 13 12 11 12 13 14 15 13 13 15 15 15 15 15 15 15 14 14 14 14 14 14 14 15 16 16 17 17 18
5 3 1 3 3 2 2 1 1 1 3 3 3 4 2 4 2 4 5 2 1 2 2 1 1 0 2 2 1 0 2 7 7 10 13 14 18 18 19 22 23 23 22 21 20 19 18 15 14 13 12 12 12 11 10 10 9 9 9 9 9 10 10 10 10 12 13 13 13 12 11 11 11 11 12 11 12 15 15 15 15 14 15 15 14 14 14 14 14 14 14 14 15 15 15 16 17
4 4 2 4 3 2 1 2 3 2 4 3 2 3 4 4 4 3 2 2 1 1 2 1 2 2 2 1 1 1 3 7 8 13 14 14 17 18 20 21 21 21 21 21 21 20 18 16 15 13 12 11 12 12 11 10 9 9 9 8 8 9 10 9 9 10 11 12 13 13 12 12 11 10 11 11 12 15 15 14 14 15 15 15 14 13 13 14 14 14 13 13 14 15 14 15 17
3 2 3 4 2 1 2 2 3 4 5 2 1 2 3 5 4 3 2 3 1 1 3 3 2 3 3 2 1 0 3 8 10 15 15 14 17 18 19 19 19 19 19 20 20 20 18 16 15 14 13 12 12 12 12 10 10 10 9 8 8 9 9 9 8 8 10 11 12 13 12 12 12 11 12 12 13 15 14 13 14 15 15 14 14 13 13 13 13 13 13 14 14 14 15 16 17
3 1 5 3 2 2 2 3 3 3 4 1 2 1 3 5 3 5 5 3 3 3 4 4 2 2 2 2 1 1 4 10 12 16 16 14 17 18 18 18 18 17 17 18 18 19 18 17 16 15 13 13 13 12 12 11 11 10 9 9 8 9 9 9 8 7 8 9 10 11 10 11 11 12 12 12 14 15 13 13 13 15 14 14 13 13 13 13 13 13 13 14 14 15 15 17 18
3 2 4 3 1 2 3 1 1 1 2 3 1 2 3 2 3 4 6 4 4 5 2 2 3 2 2 1 1 2 6 12 14 17 16 16 17 17 18 17 16 16 16 16 17 17 17 17 17 16 15 14 13 13 12 12 12 11 10 9 8 8 9 9 8 8 7 8 9 9 8 9 10 10 11 13 17 16 13 12 12 15 14 13 13 12 12 13 13 13 14 14 14 15 15 17 17
4 3 4 4 2 0 3 1 1 4 3 3 2 3 3 1 3 3 5 5 4 4 1 0 2 1 2 3 2 3 9 15 16 18 16 17 18 16 17 17 16 15 15 15 16 17 17 18 18 17 16 15 15 14 13 13 12 12 10 10 9 8 9 9 8 7 7 7 8 8 8 8 9 9 10 14 19 17 13 12 11 14 14 13 13 12 12 13 13 13 14 14 14 15 15 16 16
3 4 5 3 1 1 3 2 2 3 4 4 1 2 4 2 2 2 3 3 1 1 1 2 1 1 2 4 1 2 12 18 17 18 16 17 18 15 14 15 16 16 15 15 16 17 16 17 18 18 17 16 16 15 14 14 13 12 11 10 9 8 9 9 8 7 7 7 7 7 7 8 8 9 10 13 19 17 13 12 11 13 13 13 13 12 12 12 13 13 13 13 13 14 14 15 17
3 4 5 2 2 2 4 4 4 3 3 4 2 3 6 1 2 1 1 3 2 0 1 2 2 1 2 3 0 4 16 19 19 19 18 18 18 16 14 14 15 16 16 16 16 16 16 17 19 19 18 17 17 16 15 15 14 13 12 11 10 10 9 9 8 8 7 7 7 7 7 7 8 8 9 12 18 17 13 13 11 12 13 13 13 12 12 12 13 12 12 12 12 13 13 15 17
4 3 4 2 3 3 6 8 7 4 2 4 4 5 7 4 2 0 1 3 3 0 2 2 2 3 4 2 1 9 18 20 22 22 21 20 18 18 16 15 16 16 17 17 17 16 16 18 20 20 19 18 18 17 16 16 15 14 13 12 12 11 10 10 9 9 8 8 8 7 7 7 7 8 9 11 17 17 13 12 11 11 14 14 13 13 12 12 13 12 12 12 12 12 13 15 16
4 3 3 3 5 4 5 7 6 2 2 5 4 3 4 5 4 2 2 2 3 1 3 3 3 4 3 3 3 15 20 22 24 23 23 22 20 20 18 17 17 17 18 19 18 17 18 19 21 21 20 20 19 18 18 17 17 16 15 14 14 13 12 11 10 10 9 9 9 8 7 7 8 8 10 11 14 17 15 13 11 12 14 15 14 14 13 13 13 13 12 11 12 12 13 14 16
2 4 3 4 6 3 3 5 6 4 3 7 5 2 2 3 4 2 3 2 1 4 5 1 4 7 5 2 7 18 19 21 23 22 22 22 21 21 20 21 21 19 20 20 19 18 20 20 21 22 21 21 20 19 19 18 18 18 17 16 15 15 14 13 12 11 11 10 10 9 8 8 8 9 10 11 13 15 15 14 13 13 15 16 15 14 13 14 14 13 12 11 12 12 13 14 16
2 4 4 5 3 2 2 5 5 4 3 6 6 5 2 3 3 2 5 3 2 6 7 8 9 8 6 3 9 18 18 19 20 21 20 21 21 21 22 24 24 22 20 20 20 19 21 21 20 22 22 21 21 20 20 19 20 19 18 17 17 16 15 15 14 13 12 11 11 10 10 9 9 10 10 12 13 13 14 14 13 13 14 16 14 12 13 14 14 13 12 12 12 12 13 14 16
3 1 3 4 3 3 2 4 4 3 3 6 8 6 4 3 2 3 7 6 5 5 5 8 9 7 8 8 13 16 17 18 19 20 21 21 22 23 23 23 23 23 22 22 23 21 21 22 21 21 22 23 22 22 22 21 20 20 19 19 18 18 17 16 15 15 14 13 13 12 11 11 10 10 11 11 12 13 13 12 12 12 13 14 12 11 13 14 14 13 13 12 12 12 13 15 16
3 1 0 3 2 2 1 2 3 4 6 7 7 5 3 5 1 2 7 8 5 4 4 5 6 7 10 12 16 15 14 17 19 23 24 25 26 27 27 25 24 24 24 24 25 24 22 22 23 23 22 23 24 23 23 22 22 22 21 21 20 20 19 18 18 17 16 15 14 14 13 12 12 11 11 12 12 13 12 12 12 12 12 13 13 12 14 14 14 13 13 12 12 13 13 15 16
4 2 1 2 1 1 1 1 2 4 6 5 4 3 4 6 4 2 4 10 5 3 3 2 3 8 12 12 15 16 16 20 23 27 28 28 29 29 28 27 26 24 24 26 26 26 25 23 23 24 23 22 24 24 24 23 23 23 23 23 22 22 21 21 20 19 18 17 16 15 14 14 13 13 12 12 13 13 13 12 12 12 12 13 14 14 14 14 14 13 13 13 12 13 14 15 16
3 3 2 2 1 1 2 2 3 3 3 2 4 5 2 5 4 1 7 10 5 4 1 3 5 7 9 10 14 15 15 19 22 24 25 25 25 23 24 25 26 25 27 27 27 27 27 26 24 25 25 23 23 24 25 25 24 24 24 24 24 23 22 21 21 21 19 19 18 17 16 16 15 14 13 13 13 13 13 13 13 13 12 13 15 16 15 14 14 13 13 13 13 13 14 15 17
2 4 3 4 1 3 1 3 4 2 1 2 5 4 2 2 2 2 8 7 4 2 2 4 6 6 7 8 12 14 13 17 20 21 23 23 21 21 24 26 26 29 30 28 28 28 27 28 27 27 27 26 24 22 24 26 25 25 25 25 26 25 24 22 21 22 22 21 20 19 18 17 16 15 14 14 14 14 14 14 14 14 13 14 16 16 16 15 14 14 14 14 14 14 14 15 17
3 6 6 5 2 3 1 3 2 1 1 1 5 4 2 1 1 4 5 4 2 2 3 3 5 7 8 7 9 12 13 17 20 19 19 19 21 24 26 27 29 31 30 28 29 28 27 28 29 28 28 27 26 24 24 26 27 26 26 26 27 26 25 23 22 22 22 22 22 21 20 19 17 16 15 14 14 14 15 15 14 14 14 14 16 16 16 15 15 14 14 14 14 15 15 16 17
4 7 6 6 4 2 4 4 2 2 2 1 5 4 3 2 1 6 3 3 1 5 3 3 5 6 7 7 7 9 12 15 16 16 18 21 27 30 30 32 34 33 31 30 29 28 27 28 29 29 29 28 28 27 26 27 27 27 27 27 28 28 26 25 24 23 23 23 23 22 21 20 19 17 16 15 15 15 15 16 15 15 15 15 16 16 16 16 16 15 15 15 15 15 16 16 18
3 5 5 5 6 4 4 2 2 2 2 1 3 2 3 2 6 7 2 4 2 5 4 4 5 5 4 5 5 7 10 12 13 18 23 28 31 32 34 36 35 34 33 30 27 27 28 28 28 29 29 29 30 30 29 28 28 28 28 28 28 28 27 26 26 25 24 24 24 23 23 21 20 19 17 16 15 16 16 17 16 16 16 16 16 17 17 17 17 17 17 17 17 17 17 17 18
2 3 4 2 5 3 3 2 3 0 2 3 1 1 5 8 10 6 1 4 3 1 5 5 4 4 4 4 4 6 9 12 16 23 28 29 30 30 33 35 33 33 33 29 29 29 29 28 27 28 29 30 31 31 31 30 29 29 29 29 29 29 28 27 27 27 25 24 24 24 23 22 21 20 18 17 16 16 17 17 17 17 17 16 17 17 18 18 18 18 18 18 18 18 18 19 20
2 3 2 2 2 3 4 3 1 3 1 4 3 2 6 8 8 4 2 2 1 4 6 4 4 4 4 4 5 6 8 14 20 25 27 27 29 30 32 32 31 33 32 31 33 31 30 29 28 27 28 29 30 31 32 31 30 30 30 30 30 31 30 29 28 28 27 25 24 24 24 24 23 22 20 19 18 17 18 18 18 18 17 17 18 18 19 19 19 19 19 19 20 20 20 20 21
3 2 1 2 3 4 6 2 1 2 1 4 5 2 6 7 7 4 3 3 5 6 6 5 5 5 5 5 6 6 7 13 20 24 27 29 30 31 33 33 32 33 34 34 34 32 31 31 30 29 28 29 30 31 32 31 31 30 31 31 31 31 31 31 30 29 28 27 25 23 24 25 25 24 23 22 21 19 18 18 18 18 18 18 18 19 20 20 20 20 20 20 21 22 22 22 23
4 2 2 1 2 3 4 1 2 1 1 2 2 2 3 3 5 5 3 4 4 2 6 6 5 6 5 5 6 6 7 9 15 23 30 32 33 34 35 35 34 34 35 34 34 34 34 33 33 33 32 31 31 32 31 31 31 31 30 30 31 31 31 31 30 30 29 29 28 25 24 25 26 26 26 25 24 22 20 19 19 18 18 18 19 20 21 22 21 21 21 21 22 22 23 24 24
2 3 2 2 3 2 2 2 3 4 1 1 1 2 6 5 6 7 4 1 1 3 7 6 5 6 5 5 5 6 7 7 10 20 30 33 35 36 36 35 35 35 34 34 34 35 35 34 34 34 34 33 32 32 31 30 30 31 31 30 30 31 33 33 32 31 31 30 29 27 25 25 26 26 27 27 27 25 23 21 21 21 20 20 21 22 23 23 23 22 22 23 23 24 24 25 26
5 3 3 2 2 3 3 3 2 4 1 2 1 4 9 10 10 9 6 3 3 7 6 5 7 7 7 6 6 7 7 9 13 20 25 28 32 34 35 35 35 34 35 34 34 34 33 34 34 34 34 33 33 32 31 30 29 28 28 29 30 30 31 31 32 33 33 32 29 27 28 28 28 29 30 29 29 28 27 25 24 24 23 23 23 24 25 25 24 24 25 25 25 25 25 26 27
9 6 4 5 3 4 5 4 4 1 1 4 5 5 7 9 11 11 6 3 4 7 6 6 7 7 8 6 7 8 8 11 15 18 19 21 25 28 30 32 33 33 34 33 33 33 33 33 33 34 35 34 33 31 31 30 30 30 28 27 29 31 31 29 28 28 28 30 29 30 30 27 27 30 32 32 31 29 29 28 28 27 26 26 27 27 27 27 27 27 27 27 27 27 26 27 27
8 6 4 4 4 2 4 3 5 1 2 4 3 4 8 9 11 12 9 3 4 8 8 9 9 8 8 8 8 8 9 11 12 14 16 17 19 21 23 25 27 29 31 32 32 33 35 35 35 36 36 35 34 33 32 32 31 32 32 31 31 31 32 31 29 28 28 29 30 31 30 28 29 31 33 33 32 31 30 30 32 32 30 31 31 29 29 29 29 30 30 29 29 29 29 28 28
6 6 5 2 3 3 2 2 4 3 1 3 3 4 10 10 10 11 8 6 7 9 9 10 11 10 8 8 10 9 8 8 8 12 17 17 17 18 19 21 23 26 29 31 33 34 35 35 35 36 35 35 35 36 35 34 34 33 32 32 32 31 31 32 33 34 33 34 34 33 31 29 30 32 32 31 32 34 33 34 37 37 35 34 34 31 30 30 31 33 33 33 33 33 32 31 31
5 4 5 2 3 2 3 2 4 4 1 3 4 5 10 11 9 11 10 9 9 8 9 9 9 10 9 8 9 8 8 8 8 11 15 18 19 19 20 21 24 25 26 28 30 32 33 34 35 35 35 35 36 36 36 35 36 34 31 29 29 29 30 31 33 33 32 33 34 34 31 28 28 29 30 31 34 37 36 37 39 39 38 37 36 35 34 34 35 36 37 37 35 33 32 33 36
4 4 5 2 2 2 2 2 3 3 1 1 2 3 8 8 7 9 9 6 7 7 8 9 8 10 11 9 7 7 8 10 10 10 11 14 18 19 21 23 24 25 26 27 29 30 32 33 34 34 35 35 35 36 36 35 33 31 30 29 27 26 26 27 29 29 28 28 29 32 33 32 31 29 30 34 38 39 39 40 40 40 40 39 38 37 37 37 38 39 40 39 36 33 31 32 36
0 3 5 3 3 4 2 1 2 3 2 2 2 4 6 5 5 7 5 4 5 5 6 8 8 9 9 9 9 9 10 11 11 11 9 10 14 17 20 23 24 25 28 29 29 29 30 31 32 33 34 34 34 34 34 33 30 29 28 28 26 24 23 23 24 25 27 28 30 32 34 35 32 30 33 37 40 40 39 40 41 41 41 41 41 39 38 39 39 40 40 39 39 37 34 32 34
2 4 6 6 7 6 2 1 3 3 3 3 4 3 5 4 4 7 5 6 6 4 5 9 8 6 6 8 10 8 8 9 10 12 10 9 12 14 16 18 21 24 27 28 27 27 27 28 29 30 31 32 33 32 32 31 30 29 29 27 26 25 24 25 27 28 28 31 32 32 32 30 29 30 32 33 35 36 37 38 39 40 40 41 41 40 39 39 39 40 39 39 40 39 34 29 33
3 4 5 7 7 8 6 4 4 2 2 2 3 2 4 6 5 7 5 7 10 7 6 9 8 5 5 6 8 7 7 8 8 9 9 10 12 12 14 16 18 21 23 24 25 25 25 26 26 27 29 30 30 30 30 31 31 30 30 30 29 28 27 28 31 31 31 32 32 32 31 30 29 30 29 30 30 30 32 34 37 38 39 40 40 39 39 39 41 42 41 41 41 38 34 31 33
3 3 6 9 8 8 7 5 4 2 2 3 4 3 2 5 6 6 5 6 10 9 8 9 6 5 6 6 7 7 8 8 7 8 8 8 10 11 13 14 14 15 17 18 20 22 22 23 23 24 25 27 28 29 29 30 31 31 31 31 30 30 30 29 29 29 30 30 31 31 32 32 32 31 31 31 30 30 30 33 36 38 38 39 40 40 40 41 42 42 42 43 42 40 40 38 36
3 3 6 7 7 7 5 6 4 1 1 3 4 2 1 6 6 5 5 4 7 9 11 10 7 7 7 6 7 7 7 7 7 8 8 8 9 9 10 9 8 10 11 13 15 16 18 20 20 21 23 24 26 27 27 28 30 30 30 30 30 30 30 28 26 26 27 29 30 31 31 32 32 32 32 31 30 31 31 33 36 38 38 39 41 41 40 40 40 40 41 42 42 43 44 43 40
3 5 7 6 6 6 5 5 3 2 1 4 4 2 1 5 7 4 2 2 6 9 10 8 7 7 7 6 7 7 6 6 5 7 8 11 11 8 5 4 5 7 8 10 11 12 15 17 18 19 20 22 23 24 25 26 27 29 29 30 30 29 28 27 26 25 25 26 28 30 30 31 31 31 32 31 31 32 32 30 31 33 35 36 39 40 39 40 39 39 40 42 43 43 43 42 41
7 6 7 7 6 5 4 3 4 3 2 5 5 2 0 3 6 4 3 4 6 6 6 6 6 7 6 6 6 6 6 6 5 4 6 9 8 4 1 1 4 6 8 10 10 11 13 16 17 18 18 19 20 22 23 24 25 27 28 29 29 28 28 27 27 26 26 26 27 28 29 29 30 30 30 30 30 32 33 32 31 32 33 34 36 38 38 39 40 40 40 41 42 43 44 43 42
6 4 5 5 4 4 4 4 3 2 4 6 3 2 1 3 6 4 4 6 6 5 4 7 7 8 7 6 6 6 5 5 5 4 4 4 3 2 2 3 6 8 9 10 11 11 13 14 15 16 17 18 18 20 21 22 23 25 26 27 27 27 27 27 27 28 28 28 28 28 28 28 29 29 29 30 30 31 33 35 36 35 33 33 35 36 38 38 39 40 40 41 43 44 45 44 42
5 4 6 5 2 3 1 3 1 3 5 4 2 1 2 6 8 8 10 11 8 7 7 7 7 8 8 7 7 7 6 5 5 4 4 4 3 2 2 4 6 9 10 10 11 12 12 14 15 15 16 16 17 18 19 20 22 23 24 25 25 25 26 27 27 28 28 28 28 28 28 28 29 29 29 30 30 30 31 34 35 36 34 32 32 33 34 36 38 39 40 42 43 44 45 44 44
4 5 6 5 3 3 2 3 2 3 4 3 3 2 3 5 5 9 15 13 6 6 8 7 6 8 8 7 8 8 8 5 4 4 3 3 3 1 2 4 6 9 10 10 11 12 13 14 14 14 14 15 15 16 17 18 19 20 21 22 23 24 25 26 26 27 27 27 27 28 28 29 29 29 29 29 29 28 29 30 31 34 35 34 33 32 31 32 33 36 38 40 43 44 43 43 45
2 3 4 5 5 4 4 4 3 4 2 3 3 2 3 2 2 5 10 9 6 4 6 5 6 8 6 7 8 7 8 5 3 3 3 3 3 0 2 4 6 8 10 10 11 12 13 13 13 13 13 13 14 14 15 16 16 17 18 20 21 22 23 24 25 25 25 26 27 27 28 28 28 29 29 28 28 27 28 28 29 30 31 33 33 33 33 32 31 33 35 38 40 42 41 41 43
1 1 4 3 4 5 3 3 5 3 0 1 2 3 4 4 6 8 5 6 8 6 5 4 6 7 4 6 7 6 6 5 3 3 3 3 2 2 3 4 6 8 10 11 11 11 12 12 12 12 11 11 12 13 13 13 14 15 17 18 19 20 21 22 23 23 23 24 26 26 27 27 28 28 28 28 27 27 27 27 28 29 29 29 31 32 33 33 33 33 34 36 37 38 39 40 41
2 2 3 4 3 8 6 2 0 3 1 3 1 4 5 4 7 9 4 5 8 7 5 5 6 5 4 5 5 5 6 5 4 4 3 4 3 3 4 5 7 9 10 10 10 10 10 10 10 10 10 10 11 11 12 12 13 15 16 17 18 19 20 20 20 20 21 22 24 25 25 26 27 27 27 27 27 27 27 27 27 28 28 28 29 30 32 32 33 35 35 36 36 36 36 38 40
5 3 5 3 2 5 4 2 3 3 2 4 1 4 5 3 4 7 7 6 7 6 5 4 4 4 4 5 5 6 7 5 5 4 4 5 5 3 3 6 7 9 9 9 10 10 9 9 8 8 8 8 8 8 9 11 12 13 14 15 16 16 17 18 18 18 19 21 22 23 24 25 26 26 26 26 27 27 27 27 27 28 28 28 29 29 31 32 33 34 36 36 36 35 35 37 38
3 4 3 4 3 2 2 2 1 1 2 4 4 4 4 4 5 5 4 5 5 5 2 1 4 5 4 5 5 6 6 5 5 4 3 4 6 5 3 6 8 9 10 10 10 9 9 8 8 7 7 6 6 6 7 8 10 10 11 12 12 14 15 16 17 18 19 20 21 21 22 23 23 24 25 26 26 27 27 27 27 28 28 28 29 29 30 31 33 34 36 36 36 35 34 36 36
3 2 2 3 3 4 2 2 4 3 3 3 4 4 3 6 6 5 9 9 6 6 4 1 5 6 4 4 4 5 5 5 5 5 4 3 5 5 4 7 8 10 10 10 10 8 8 8 7 7 6 6 6 6 6 7 7 8 9 10 10 12 13 15 16 18 19 20 19 19 20 20 21 22 24 24 26 26 27 27 27 28 28 29 29 30 30 31 32 35 36 36 36 36 36 38 38
2 3 3 2 1 2 1 1 2 4 4 3 2 4 5 6 4 7 10 9 7 7 5 3 5 5 5 4 5 5 5 5 5 4 4 5 5 2 5 8 9 10 10 10 9 8 7 7 7 7 7 6 5 5 6 6 7 8 10 10 10 12 13 14 16 18 19 19 18 18 18 18 19 21 21 23 24 25 25 26 27 28 29 29 29 30 30 30 32 34 36 37 37 37 38 39 39
6 5 6 6 4 4 3 2 1 2 3 4 3 3 8 6 4 6 7 6 6 6 5 4 5 6 6 6 6 6 6 5 5 4 4 4 3 2 6 8 9 10 10 9 9 8 6 6 5 4 4 3 2 3 5 7 8 10 11 10 10 11 12 13 15 17 18 17 17 17 16 17 18 19 20 21 22 23 23 24 26 27 28 29 29 30 30 30 32 34 36 37 37 37 38 38 37
Wind_Direction
308 108 96 85 103 162 24 49 100 325 80 93 292 187 227 224 219 169 153 164 156 202 203 136 141 145 131 164 181 171 149 162 168 131 200 259 154 160 159 155 158 159 154 148 147 145 141 140 143 144 139 132 122 118 114 107 102 96 93 93 94 96 96 95 96 97 98 98 98 99 97 97 93 92 95 97 97 96 93 91 89 88 88 86 84 81 79 83 85 86 86 85 84 84 84 84 84
317 115 99 92 48 136 227 51 104 337 52 98 248 179 255 331 199 191 181 189 204 228 152 123 126 114 83 92 120 126 112 190 186 186 334 138 149 160 157 156 161 160 154 146 148 147 145 143 146 147 141 134 126 123 118 112 108 101 98 95 95 98 99 98 96 98 98 98 99 99 97 98 95 94 97 99 99 97 95 93 92 91 90 89 87 86 84 85 87 88 86 86 86 87 89 88 88
101 126 110 109 28 47 90 41 84 52 73 143 260 228 211 151 206 211 197 213 226 182 117 119 116 76 47 51 80 114 28 322 202 224 120 145 152 163 157 158 163 160 153 149 150 150 148 144 146 148 143 137 129 128 123 119 115 107 103 98 99 101 101 100 97 98 100 104 104 100 99 100 99 98 100 102 102 100 97 95 94 94 92 91 89 89 89 89 89 88 87 88 90 91 91 92 92
119 117 123 179 51 37 59 42 105 121 123 189 264 238 197 182 202 216 218 227 191 131 92 135 127 41 34 57 150 88 250 288 200 184 140 161 164 159 156 159 163 159 154 151 151 152 150 145 146 148 146 140 134 132 127 125 121 113 106 102 104 103 102 100 98 101 101 103 103 103 102 102 101 100 103 105 104 102 99 97 96 96 94 91 92 94 94 94 91 89 91 92 93 94 92 93 93
112 87 106 173 99 50 93 71 98 107 174 179 189 245 221 197 186 180 193 206 199 160 97 134 116 326 46 155 142 117 208 160 183 189 159 172 169 154 155 160 162 159 154 153 153 154 152 148 148 149 148 144 140 137 132 132 127 117 110 107 107 106 106 102 100 103 102 104 105 104 103 103 102 102 104 105 104 102 100 98 98 97 96 94 97 100 97 95 94 93 94 92 92 94 94 96 97
114 86 71 87 91 131 119 87 115 166 223 167 142 253 224 196 182 152 127 186 239 272 154 158 157 151 76 327 241 187 184 120 164 189 173 172 166 155 156 162 163 159 155 155 155 156 154 151 151 150 153 150 147 143 137 137 133 123 116 113 112 110 109 108 109 106 103 109 112 107 105 105 104 104 105 107 106 104 102 99 99 99 98 96 94 96 96 96 96 97 96 92 93 96 99 102 102
146 101 53 72 65 27 101 124 182 225 238 161 167 251 220 194 179 139 138 171 227 320 155 228 178 119 133 294 248 200 213 161 153 171 177 169 163 158 159 163 164 160 157 158 157 158 156 154 154 154 158 157 154 150 143 141 139 129 122 118 117 115 111 114 115 111 107 108 113 108 106 107 105 106 107 107 107 107 104 101 102 101 101 99 94 91 93 96 96 98 98 97 98 100 104 108 108
139 173 1 82 44 21 90 121 205 228 251 217 226 247 235 187 166 142 159 184 182 234 271 245 215 118 174 61 141 211 247 173 160 165 173 167 163 161 161 165 166 163 161 162 160 160 158 157 158 160 162 162 161 156 150 147 145 136 128 126 123 119 116 117 117 119 116 109 112 109 106 108 108 110 109 107 108 110 108 105 106 106 106 105 103 100 98 97 97 99 99 101 103 104 109 112 113
65 57 17 86 80 42 54 18 224 244 265 264 246 248 249 174 158 144 160 208 237 179 223 225 201 202 180 83 190 250 228 178 177 169 170 169 166 163 164 168 169 166 165 166 165 163 161 161 162 166 165 164 166 161 156 151 148 142 135 132 128 122 120 120 119 126 127 118 115 117 114 112 113 115 114 112 114 117 114 111 109 109 109 108 108 108 106 103 102 103 102 104 106 108 113 116 117
36 26 118 81 86 58 9 293 234 252 253 261 253 237 188 159 143 125 150 176 199 152 216 223 124 182 144 137 247 310 169 179 178 169 171 173 169 167 168 171 173 169 167 168 169 167 165 167 167 170 169 166 170 167 164 157 152 149 142 138 133 127 124 124 123 128 134 128 121 124 125 119 119 121 119 121 124 123 119 115 112 112 112 111 111 109 108 106 105 106 105 108 109 111 117 119 117
33 359 98 76 74 89 166 216 266 269 269 291 281 240 187 155 122 97 106 132 152 126 166 130 131 156 114 303 234 135 164 175 179 171 171 174 174 172 170 172 176 175 171 169 171 172 169 171 172 173 171 171 176 174 170 166 160 156 153 147 141 135 130 129 129 128 134 136 131 130 133 130 126 125 124 128 131 127 123 119 116 115 115 115 113 110 108 107 107 107 110 112 110 113 119 119 116
81 341 63 83 117 152 189 178 273 288 303 326 141 251 184 140 126 163 164 147 145 145 212 183 173 142 101 311 222 200 176 176 181 172 171 175 177 175 172 174 177 179 177 174 174 174 174 176 177 176 174 177 182 179 175 174 169 165 162 157 150 144 137 137 136 132 134 136 140 138 140 141 136 133 130 130 133 131 127 124 120 118 117 118 116 114 113 112 111 112 116 116 112 111 115 116 117
115 148 88 96 153 144 155 156 285 324 331 274 171 240 155 139 173 194 157 132 131 146 241 207 171 102 134 260 265 309 185 178 177 172 175 175 178 178 175 176 178 181 181 181 179 177 180 180 181 181 179 182 186 183 181 181 179 174 169 165 161 154 146 146 145 142 139 136 142 144 143 144 144 145 140 135 133 132 135 134 127 122 120 120 119 120 120 118 117 117 120 118 115 114 116 121 124
132 151 108 113 94 138 155 127 299 126 266 259 198 178 169 164 184 177 143 142 185 178 262 199 155 126 166 229 302 300 183 177 173 173 178 177 180 180 179 180 181 183 182 186 185 182 184 184 185 185 186 188 188 187 187 188 187 182 177 172 169 164 155 154 156 152 147 143 145 145 141 143 146 149 147 140 136 137 147 149 136 126 124 126 125 125 125 122 122 122 123 121 120 122 125 130 131
128 128 90 105 50 89 163 106 143 142 223 227 146 159 172 231 137 138 163 162 219 217 335 161 165 192 190 158 211 258 176 173 172 173 178 178 181 181 183 185 186 188 186 190 189 188 189 188 189 189 191 192 192 192 190 192 193 190 183 178 175 173 166 164 166 162 156 151 148 145 141 141 143 144 143 140 140 144 155 159 145 133 128 129 130 130 129 128 129 127 125 125 127 132 134 135 134
120 113 72 89 106 181 173 159 130 127 242 215 148 155 150 255 132 137 213 152 186 279 40 213 202 254 185 142 196 218 162 168 171 171 173 174 180 182 185 188 191 194 192 194 194 193 192 192 193 193 194 196 197 197 195 196 198 196 190 185 183 183 179 176 175 172 166 161 154 146 138 136 138 142 142 139 143 148 159 164 154 143 136 135 137 136 137 134 131 129 130 134 137 139 139 139 137
80 84 71 83 151 196 185 173 175 161 233 231 248 189 150 224 297 188 218 92 114 197 332 246 230 250 194 144 142 149 155 165 167 166 169 171 178 182 187 191 193 196 196 198 198 196 195 197 199 198 198 199 201 201 199 200 203 202 198 193 191 191 190 187 184 181 177 172 164 153 142 138 139 146 149 144 147 154 163 166 163 155 149 145 145 142 142 139 135 136 139 141 143 145 145 144 142
62 79 99 138 176 202 185 177 196 171 166 196 206 197 159 173 239 163 90 52 43 75 288 289 282 260 237 263 232 154 157 163 166 166 168 172 178 182 189 194 195 198 198 198 200 199 198 201 204 204 202 201 202 204 203 204 205 206 205 202 198 198 197 196 193 190 188 183 176 167 156 148 146 151 157 153 155 163 170 172 169 164 159 152 150 150 150 147 143 145 147 147 147 149 152 150 148
87 107 112 193 199 206 195 171 183 173 126 156 172 191 176 179 165 129 195 289 24 148 266 323 307 261 239 285 177 159 161 164 169 170 171 177 182 184 189 196 198 200 200 199 200 201 202 204 206 208 207 205 204 204 205 205 206 207 208 209 205 202 201 202 201 198 197 193 186 178 169 161 157 156 162 163 163 171 179 181 177 169 165 159 159 161 157 151 150 154 154 153 153 153 156 156 154
138 117 112 230 210 201 221 179 187 212 146 136 151 159 181 194 152 143 190 211 18 198 226 230 256 242 216 261 161 161 165 167 173 176 178 184 188 190 192 197 200 201 203 203 201 203 207 207 207 210 213 210 206 206 207 206 207 210 209 211 210 206 205 206 206 205 204 201 196 189 180 172 167 164 166 171 173 178 183 187 184 179 176 172 173 169 158 155 158 161 161 160 160 160 162 161 160
141 119 162 220 188 139 208 203 206 213 151 138 137 123 176 214 158 153 155 145 269 242 225 203 216 216 191 198 171 167 169 170 177 183 186 190 194 198 200 202 205 206 208 209 209 207 207 210 211 211 214 215 211 208 210 209 209 212 213 214 212 210 210 209 210 210 209 206 202 197 191 184 178 175 174 178 182 186 190 193 192 189 188 184 181 170 157 159 165 168 167 167 166 167 168 167 167
106 119 178 182 152 126 187 212 209 180 115 120 129 143 183 165 133 154 158 178 233 237 230 216 215 195 174 174 173 170 173 176 181 188 192 195 198 203 205 206 207 210 212 214 217 215 210 211 214 216 216 218 216 213 213 212 211 213 216 218 215 212 213 213 213 213 212 211 207 204 198 192 188 185 183 185 188 193 197 201 200 196 195 192 183 169 163 167 174 175 173 173 172 174 175 173 173
118 249 177 180 190 117 170 214 206 165 122 136 154 171 145 123 182 165 176 211 224 220 238 239 231 186 163 158 166 171 178 182 187 193 195 197 201 204 206 205 205 208 211 216 220 221 219 212 214 220 220 218 218 218 216 214 214 214 216 220 219 215 213 215 216 216 215 214 212 210 207 203 198 195 193 193 194 198 203 207 209 204 200 195 183 175 176 177 180 181 178 179 177 178 180 179 179
96 156 165 175 213 61 278 229 171 155 142 170 170 137 127 156 190 91 217 234 228 239 276 270 207 161 153 154 171 180 184 188 194 198 199 200 203 205 206 207 207 208 211 216 220 222 224 219 215 220 223 222 220 219 218 215 216 217 217 221 224 222 217 216 217 218 218 217 216 214 213 212 207 204 201 199 200 202 207 211 214 211 204 197 189 186 190 187 185 187 185 184 183 183 184 184 185
82 149 166 132 53 345 334 67 106 140 149 160 122 120 173 189 164 117 245 246 247 259 317 101 127 142 161 167 182 189 190 196 199 201 204 207 207 207 209 210 210 211 213 215 217 220 224 224 220 219 224 226 223 220 221 219 217 219 221 221 223 227 224 219 218 219 220 218 218 217 217 217 214 211 208 206 206 206 209 212 215 215 208 200 195 194 197 197 192 192 192 191 189 188 188 187 188
163 130 135 119 43 338 31 77 72 111 130 108 129 110 324 212 162 268 252 255 273 268 104 128 134 151 189 185 189 192 194 200 201 201 206 210 209 210 213 212 212 214 216 217 217 219 222 225 224 221 222 226 226 223 223 223 219 217 222 223 223 227 229 226 220 219 222 222 220 220 219 220 220 218 215 213 213 213 213 214 215 216 212 205 201 199 200 203 200 197 197 197 195 193 192 191 190
137 111 105 90 42 333 29 95 35 12 87 58 150 146 320 313 296 262 253 288 306 126 122 166 163 178 197 198 202 199 201 204 200 199 203 207 210 214 216 214 215 217 218 218 219 219 220 224 225 224 223 224 227 226 224 224 223 219 220 224 225 226 229 231 228 223 222 223 224 223 222 222 221 222 222 220 219 219 219 217 217 216 214 209 205 204 203 205 206 205 203 202 201 198 196 193 192
113 124 103 32 11 36 32 81 22 347 98 69 132 133 326 11 280 229 227 326 350 149 167 212 198 208 207 205 212 207 216 213 202 200 200 205 210 214 215 216 217 217 218 218 219 219 220 224 225 226 226 225 227 229 228 225 225 224 220 223 227 228 228 231 233 229 225 225 226 226 225 224 222 223 224 225 226 226 225 222 220 218 216 212 208 208 208 208 208 208 207 206 205 203 200 197 194
109 119 112 359 5 44 10 47 324 342 117 261 122 104 298 227 231 231 231 343 37 142 196 234 223 238 235 221 224 217 223 216 208 213 212 212 213 214 217 220 219 218 220 219 219 220 220 222 224 226 226 227 227 229 232 230 227 227 223 222 227 230 229 230 233 234 232 228 228 229 228 226 225 226 226 228 231 231 231 227 224 221 219 217 213 211 211 211 210 210 209 207 206 206 204 201 197
111 73 101 47 16 3 329 359 316 71 127 302 162 197 270 244 249 248 314 345 26 163 228 240 241 248 253 242 236 231 225 213 213 220 221 220 220 219 222 224 222 222 223 219 219 221 219 220 223 226 226 226 227 227 230 231 230 229 226 223 224 228 228 229 232 236 239 235 231 231 231 230 229 229 229 231 234 235 235 231 228 225 221 220 218 216 215 214 214 213 211 208 207 207 207 205 201
91 71 64 74 127 253 304 351 353 138 192 333 120 197 268 263 266 263 325 343 159 249 256 255 261 258 256 248 242 243 231 220 222 227 227 227 226 225 227 227 226 225 225 222 222 222 220 219 219 223 226 226 227 227 227 229 230 231 229 226 225 227 229 231 232 234 238 241 239 235 232 232 232 232 232 233 236 239 239 235 231 229 226 225 222 220 218 217 216 216 215 212 208 208 208 207 205
41 103 321 357 164 249 313 1 66 148 252 15 105 207 271 268 268 271 344 62 154 229 263 278 277 268 261 252 244 247 246 237 236 237 235 233 232 230 230 230 229 228 227 226 225 223 222 222 219 219 221 223 225 226 228 229 229 230 231 230 228 228 229 230 232 235 238 241 244 243 239 235 233 233 233 233 235 237 241 240 237 234 232 231 228 225 221 219 218 217 217 217 214 210 208 208 206
357 94 177 245 171 254 317 14 354 5 192 360 93 217 267 277 271 279 334 77 112 242 274 282 277 270 262 249 244 242 253 251 244 242 239 236 235 234 233 232 232 231 230 229 227 225 224 223 221 220 220 220 223 225 227 230 231 229 229 231 230 231 231 230 231 233 233 235 238 243 245 242 236 235 235 234 235 236 238 239 238 237 237 237 234 230 226 223 221 220 218 219 219 216 212 210 208
301 48 113 218 187 198 291 276 327 11 107 243 354 236 245 266 281 284 286 185 105 283 270 275 274 269 261 249 251 246 246 249 244 240 238 237 237 236 236 236 235 234 233 232 230 229 228 225 223 224 223 222 223 225 225 227 229 228 228 231 231 230 230 232 233 234 234 233 233 236 241 244 242 240 239 236 235 237 237 236 235 234 235 236 235 232 228 224 222 222 221 219 219 219 217 214 212
181 167 140 201 218 209 258 246 272 13 65 222 293 262 257 274 282 279 272 206 233 266 263 271 273 267 262 251 247 245 243 246 244 241 239 239 238 239 239 238 237 236 234 233 232 231 230 228 226 225 225 224 225 226 226 225 223 222 223 225 228 229 228 227 227 227 230 230 233 240 240 239 241 241 239 236 233 234 234 234 233 231 231 232 232 230 226 223 222 221 221 221 218 218 220 218 214
165 172 145 151 178 229 247 252 271 340 124 236 239 249 268 277 279 281 275 186 214 269 279 273 266 261 260 251 244 243 240 246 249 248 247 244 241 241 241 240 238 237 235 233 232 231 230 230 228 226 226 225 224 224 224 224 223 224 224 224 226 228 229 230 228 224 224 227 233 238 236 237 244 243 241 237 233 234 235 235 234 231 230 230 230 229 228 228 226 223 221 220 218 215 216 217 214
134 130 117 148 168 222 250 264 297 316 159 250 251 269 278 268 268 274 275 263 251 267 273 268 262 255 251 245 248 244 237 249 259 260 254 246 245 244 242 241 239 236 235 233 231 231 231 230 228 228 227 223 220 221 220 219 219 221 223 225 226 225 226 232 237 236 236 238 239 235 233 240 245 242 241 237 232 234 236 235 234 230 228 228 230 233 237 236 231 227 223 220 220 216 213 213 212
95 133 142 171 190 205 242 243 306 342 184 268 353 319 278 264 265 269 272 278 259 246 246 255 257 254 249 242 248 248 249 264 271 264 256 247 244 241 238 237 234 233 232 231 231 232 232 229 228 229 228 222 219 220 218 218 218 217 218 222 224 225 227 229 232 234 236 237 236 234 234 240 240 237 240 238 233 234 234 233 233 230 228 228 228 231 234 233 229 226 222 217 217 217 217 215 210
85 113 133 175 226 225 266 269 326 1 166 269 352 336 282 270 265 261 257 252 248 241 235 245 253 256 256 245 246 254 265 274 266 258 256 251 246 241 237 234 231 232 232 231 231 231 229 227 228 229 227 224 222 220 218 219 220 219 220 221 222 223 226 231 232 233 235 232 229 230 234 242 246 244 245 242 238 237 234 233 233 231 230 228 227 227 227 227 226 224 222 219 214 211 214 215 211
95 110 130 188 243 186 225 264 332 4 82 259 326 315 286 284 282 268 259 255 265 268 257 253 248 250 256 257 258 257 257 263 263 260 255 252 248 241 235 232 231 230 229 229 228 227 227 227 229 228 226 226 224 221 220 220 219 219 221 223 225 224 223 227 228 229 232 233 232 233 235 239 242 244 247 246 242 239 237 237 234 231 231 231 229 228 227 227 226 224 223 220 214 208 208 210 211
132 152 144 169 197 176 196 258 346 357 28 38 13 318 293 304 313 283 286 324 298 292 296 279 256 246 259 271 268 252 247 255 261 264 259 249 246 242 237 232 231 229 227 227 226 225 226 227 228 227 226 225 224 223 221 218 216 216 217 220 222 225 225 224 223 224 228 234 239 239 235 232 234 241 246 243 239 237 238 237 234 232 233 232 230 230 231 231 227 224 221 216 215 214 210 208 209
244 218 177 170 169 159 149 74 65 39 357 1 22 327 287 315 312 272 297 342 306 300 306 280 268 265 263 265 265 256 250 250 252 260 266 262 254 248 243 235 230 229 229 229 229 227 227 227 227 225 224 224 223 222 219 215 212 212 212 212 213 216 221 223 225 228 230 233 237 238 237 236 241 248 247 241 237 237 238 236 233 232 233 232 231 232 234 232 229 227 224 219 219 217 212 209 210
211 231 169 142 131 130 135 123 90 93 255 335 47 161 263 312 297 268 312 331 301 298 284 270 272 278 262 256 270 276 268 260 255 259 262 262 259 251 245 238 230 231 231 229 228 227 226 226 226 224 224 223 222 220 218 214 211 211 212 212 213 214 218 222 227 229 231 234 236 237 240 244 247 250 249 245 244 246 246 243 238 236 236 236 235 235 236 237 236 234 231 227 222 218 216 215 215
216 230 133 126 126 136 143 117 97 185 231 330 19 113 239 296 272 272 331 327 304 306 288 278 284 281 273 264 270 275 273 272 268 265 262 256 254 251 253 249 237 234 232 228 226 223 222 223 223 222 221 222 221 218 217 214 211 212 213 215 217 219 221 225 227 229 231 235 237 239 242 243 244 245 246 248 249 252 253 250 245 242 242 241 239 240 243 244 240 236 232 230 225 222 221 221 220
244 210 126 127 128 129 124 99 93 71 4 302 319 53 204 268 274 306 350 325 298 294 279 282 299 297 297 292 284 281 277 273 265 264 270 269 265 265 271 267 240 227 225 222 221 219 218 217 217 217 217 217 218 216 216 216 215 214 214 216 219 222 226 228 230 231 233 235 237 240 242 242 243 244 245 248 249 252 253 248 242 240 240 241 241 243 246 244 238 232 230 229 226 224 225 225 224
187 147 102 83 81 84 84 91 99 58 28 240 264 5 192 263 282 303 352 279 258 266 271 278 286 287 290 292 294 300 299 293 274 263 267 274 278 284 293 271 216 200 201 203 206 207 207 208 208 208 211 212 214 215 215 216 217 217 217 218 220 223 226 229 231 233 235 236 237 239 241 243 245 246 247 248 248 249 250 247 242 240 241 243 243 245 244 241 236 232 231 230 228 226 227 227 227
139 124 82 67 44 38 53 56 79 71 302 252 253 302 186 269 280 251 214 223 217 237 284 294 291 295 290 280 287 301 312 312 300 289 280 280 283 291 298 186 165 165 171 177 184 191 194 197 200 201 205 208 209 212 213 216 217 218 221 222 223 225 227 228 229 232 234 236 237 239 241 244 246 247 248 248 248 247 249 250 252 254 254 253 251 250 247 243 239 236 235 234 232 232 233 232 231
103 101 97 87 12 12 28 1 42 120 252 260 265 295 177 229 259 249 244 254 227 213 270 287 291 301 296 290 299 303 309 314 315 327 326 330 21 69 110 130 142 153 158 164 170 177 183 188 192 195 199 203 206 209 212 215 218 220 224 226 228 230 231 231 231 233 237 238 240 242 243 244 245 246 247 247 246 246 247 249 252 255 255 254 252 252 250 247 243 240 237 236 236 236 236 233 232
70 109 115 103 13 20 7 312 332 213 243 266 276 245 213 235 249 259 263 264 240 211 230 249 263 279 284 295 311 314 316 316 319 330 335 352 26 56 119 136 146 154 157 160 165 169 174 180 186 191 194 197 201 206 210 214 218 221 224 227 231 233 234 235 237 239 242 243 245 246 246 247 247 247 247 247 249 249 248 248 249 251 252 253 253 251 250 247 243 240 238 238 237 237 236 233 233
126 144 134 131 121 99 231 259 284 256 254 293 291 242 257 273 265 248 250 257 240 200 222 234 244 261 271 291 307 309 309 308 307 316 327 333 338 4 141 155 155 156 160 161 162 166 171 176 182 188 191 193 198 203 208 214 219 222 226 229 233 235 236 239 241 243 246 249 250 251 252 252 253 253 254 255 257 257 256 255 254 254 254 255 256 256 254 251 247 243 241 240 240 240 238 236 236
166 171 133 149 160 151 199 209 197 232 259 308 298 241 207 217 272 242 238 264 285 240 241 254 258 263 271 292 300 296 297 303 309 309 305 297 297 281 162 177 166 161 163 164 166 169 172 176 180 183 187 190 196 202 207 214 219 222 226 229 232 235 238 241 244 247 250 252 254 255 256 258 259 261 262 263 263 261 261 261 260 259 258 258 258 257 257 256 253 250 247 246 246 245 241 239 241
227 126 102 164 186 138 139 178 173 169 136 290 251 239 218 212 280 279 247 266 280 267 280 289 270 276 294 293 291 293 295 296 303 305 285 272 251 150 154 174 175 171 168 168 170 171 173 176 178 181 187 192 197 203 209 215 220 223 226 229 231 235 238 242 245 249 252 255 257 259 261 263 264 265 266 266 266 264 263 262 261 261 261 260 259 257 256 255 254 253 253 252 251 249 245 244 245
160 126 165 211 169 112 115 192 54 83 185 256 218 256 291 321 293 294 315 299 277 258 266 275 271 291 305 283 285 293 291 286 288 287 268 263 241 169 154 164 175 173 168 168 167 168 171 172 176 181 188 195 202 208 214 221 225 228 231 232 235 238 240 244 248 251 255 258 261 262 264 266 266 267 268 268 268 267 265 264 262 262 262 261 261 259 257 256 254 254 254 254 255 253 250 250 249
123 174 203 186 120 96 113 153 15 43 233 272 287 245 288 325 280 312 350 327 286 251 236 262 299 319 297 280 286 280 277 283 288 286 276 279 278 247 166 157 169 164 159 161 158 159 162 163 169 176 182 191 200 211 220 228 233 236 239 242 245 248 250 253 255 257 259 260 261 263 265 268 269 271 272 271 271 269 268 266 264 263 263 261 261 260 259 258 256 255 255 255 256 255 253 253 252
117 183 175 115 141 173 100 138 165 121 233 277 301 281 265 214 228 294 298 262 268 274 277 294 294 303 289 279 285 275 281 300 305 306 303 295 288 268 190 152 156 154 152 153 152 153 153 154 157 159 164 173 187 209 221 228 235 239 245 250 254 257 259 261 261 261 261 261 263 266 268 271 274 275 274 274 273 272 270 269 267 265 264 263 261 260 258 258 256 256 256 256 256 255 253 255 257
35 92 100 78 132 164 156 152 166 173 200 253 309 323 268 225 214 215 238 249 250 260 288 262 243 259 249 247 264 272 289 308 311 312 306 296 291 267 190 153 148 147 147 147 146 146 144 146 150 152 159 171 187 205 214 223 233 240 247 251 255 260 262 265 266 265 264 265 268 270 272 276 278 278 277 277 276 274 273 272 270 268 266 264 262 260 258 257 256 256 256 256 256 255 255 257 261
111 122 157 173 71 116 163 97 113 141 163 186 264 297 269 249 210 192 224 252 240 231 247 205 207 242 253 248 256 269 285 292 295 298 292 294 295 241 164 159 155 147 145 141 139 142 143 148 155 159 167 178 193 212 223 232 237 242 247 250 255 260 262 266 267 267 268 272 274 276 279 282 282 282 282 280 279 278 277 275 273 271 268 266 264 262 260 258 256 256 256 255 255 255 255 257 260
161 170 183 178 147 125 154 246 249 117 138 168 171 257 267 254 208 198 218 243 240 231 233 219 209 226 250 260 257 264 277 278 282 282 277 292 295 175 150 158 156 146 143 138 134 137 137 139 147 158 169 176 206 245 254 256 253 252 256 260 264 266 269 272 274 275 278 281 284 286 289 288 288 289 288 285 284 282 280 277 274 272 271 269 267 264 263 260 258 257 256 255 255 253 254 256 256